Location: Unspecified
(0.0000°N, 0.0000°E)
Time: 06:00:20
(UTC+02:00)

Meteor 2-8 Rocket - Visible Passes

Search period start: 20 September 2017 00:00
Search period end: 30 September 2017 00:00
Orbit: 937 x 957 km, 82.5° (Epoch: 19 September)

Date Brightness Start Highest point End Pass type
(mag) Time Alt. Az. Time Alt. Az. Time Alt. Az.
24 Sep 5.9 21:16:32 10° NNE 21:18:29 20° NNE 21:18:29 20° NNE visible
25 Sep 4.6 21:32:53 10° N 21:46:19 - S 21:37:37 53° NNE visible
26 Sep 4.6 21:49:45 10° N 21:55:47 69° W 22:01:48 10° S visible
27 Sep 5.8 20:24:40 10° NE 20:28:08 16° E 20:31:37 10° ESE visible
27 Sep 5.7 22:07:08 10° NNW 22:12:39 37° W 22:18:11 10° SSW visible
28 Sep 5.1 20:39:52 10° NNE 20:45:01 29° E 20:50:09 10° SE visible
28 Sep 6.6 22:25:12 10° NW 22:29:31 20° W 22:33:52 10° SW visible
29 Sep 4.5 20:56:00 10° N 21:01:54 53° E 21:07:46 10° SSE visible
29 Sep 7.4 22:45:45 10° W 22:46:24 10° W 22:47:03 10° W visible
